User: anonymous   Login
Location: ??????
(41.3164°N, 22.6615°E)
Time: 01:23:18
(UTC+00:00)
Language:

FENGYUN 1C DEB - Orbit

View from above orbital plane
View from above orbital plane
View from above satellite
View from above satellite

Ground track
Ground track

The orbit data is extracted from the following two-line orbital elements,

1 31727U 99025CEA 22225.69032398  .00001695  00000-0  83719-3 0  9990
2 31727  98.8810 307.2503 0045659 265.0096 250.4362 14.18252777543225
Epoch (UTC): 13 August 2022 16:34:03
Eccentricity: 0.0045659
inclination: 98.8810°
perigee height: 798 km
apogee height: 864 km
right ascension of ascending node: 307.2503°
argument of perigee: 265.0096°
revolutions per day: 14.18252777
mean anomaly at epoch: 250.4362°
orbit number at epoch: 54322

The dashed part of the orbit path shows where the satellite is in the earth's shadow,  

DLR